ニート-パンスターズ彗星

P/2002 QU151 ( NEAT-PanSTARRS ) 2009

English version
Home page
Updated on August 8, 2024

---------------------------------------------------------------------

・ プロフィール

・ 軌道要素

                    Epoch = 2009 Nov. 25.0 TT
     T = 2009 Dec.  3.57038 TT        Peri. =   1.26578
     e = 0.5487151                    Node  = 324.15829 2000.0
     q = 1.6900048 AU                 Incl. =  11.36186
       a =  3.7448732 AU   n = 0.13600297   P =   7.25 years

・ 光度変化

        m1 = 17.3 + 5 logΔ + 10.0 log r

---------------------------------------------------------------------

軌道要素は、CBET 5427に掲載されたものです。
光度グラフはComet for Windowsで作成したものです。

---------------------------------------------------------------------

Copyright(C) Seiichi Yoshida (comet@aerith.net). All rights reserved.